User: anonymous
Location: Toronto
(43.6672°N, 79.4170°W)
Time: 06:50:44
(UTC-04:00)
Language:

ISS - Orbit

View from above orbital plane
View from above orbital plane
View from above satellite
View from above satellite

Ground track
Ground track

The orbit data is extracted from the following two-line orbital elements,

1 25544U 98067A   14239.18528270  .00011960  00000-0  20708-3 0  9720
2 25544 051.6444 107.6822 0004371 058.5890 301.6047 15.50272937902342
Epoch (UTC): 27 August 2014 04:26:48
Eccentricity: 0.0004371
inclination: 51.6444°
perigee height: 413 km
apogee height: 419 km
right ascension of ascending node: 107.6822°
argument of perigee: 58.5890°
revolutions per day: 15.50272937
mean anomaly at epoch: 301.6047°
orbit number at epoch: 90234

The dashed part of the orbit path shows where the satellite is in the earth's shadow,  

DLR